{"data":{"norad_id":55302,"intl_designator":"2023-010AK","name":"STARLINK-5321","alt_names":[],"object_type":"PAYLOAD","status":"ACTIVE","operator":null,"country":"US","launch_date":"2023-01-19","launch_site_code":"AFWTR","launch_vehicle":null,"mission":null,"orbit_class":"UNKNOWN","rcs_meters":null,"size_class":null,"mass_kg":null,"dimensions":null,"purposes":["comms"],"wikipedia_slug":null,"has_3d_model":false,"image_url":null,"decayed_at":null,"tle_current":{"epoch":"2026-09-20T17:03:02.772000Z","epoch_age_seconds":74602,"freshness":"FRESH","line1":"1 55302U 23010AK  26263.71044875  .00000357  00000+0  37757-4 0  9993","line2":"2 55302  69.9979 252.6417 0003423 267.1776  92.8992 14.98331635202489","mean_motion":14.98331635,"eccentricity":0.0003423,"inclination_deg":69.9979,"raan_deg":252.6417,"arg_perigee_deg":267.1776,"mean_anomaly_deg":92.8992,"bstar":3.7757e-5,"rev_number":20248,"period_min":96.10689425242,"perigee_km":569.67178555052,"apogee_km":574.42988414225,"semimajor_km":6950.1878348464,"source":"CELESTRAK","updated_at":"2026-09-21T09:00:33.172096Z"}}}